Location: Mercogliano
(40.9167°N, 14.7333°E)
Time: 13:55:56
(UTC+00:00)

Terra - Pass Details

Date: 18 September 2020
Orbit: 701 x 703 km, 98.2° (Epoch: 29 October)

Event Time Altitude Azimuth Distance (km) Brightness Sun altitude
Exits shadow 20:18:55 12° 10° (N) 2,059 4.5 -34.8°
Drops below altitude 10° 20:19:20 10° 8° (N) 2,202 4.7 -34.9°
Sets 20:21:44 0° 358° (N) 3,102 5.7 -35.2°
